Robstown, TX

6:45 AM CST on January 18, 2018 (GMT -0600)
Robstown

Weather History for KRBO - January, 2012

Change the Weather History Date:

Saturday, January 7, 2012

  Actual Average (KCRP) Record (KCRP)
Temperature  
Mean Temperature 66 °F -  
Max Temperature 79 °F 65 °F 90 °F (1989)
Min Temperature 53 °F 45 °F 25 °F (1912)
Cooling Degree Days 1    
Growing Degree Days 16 (Base 50)    
Moisture  
Dew Point 57 °F    
Average Humidity 81    
Maximum Humidity 100    
Minimum Humidity 42    
Precipitation  
Precipitation 0.00 in - - ()
Sea Level Pressure  
Sea Level Pressure 29.97 in    
Wind  
Wind Speed 5 mph (SW)    
Max Wind Speed 10 mph    
Max Gust Speed -    
Visibility 6 miles    
Events Fog    
Averages and records for this station are not official NWS values.
T = Trace of Precipitation, MM = Missing Value Source: NWS Daily Summary

Daily Weather History Graph

Daily Weather History Graph

Search for Another Location

Airport or City:

Trip Planner

Search our weather history database for the weather conditions in past years. The results will help you decide how hot, cold, wet, or windy it might be!

Date:

Astronomy

Jan. 07, 2012 Rise Set
Actual Time 7:22 AM CST 5:51 PM CST
Civil Twilight 6:57 AM CST 6:16 PM CST
Nautical Twilight 6:28 AM CST 6:45 PM CST
Astronomical Twilight 5:59 AM CST 7:14 PM CST
Moon 4:37 PM CST (1/7) 5:53 AM CST (1/7)
Length of Visible Light 11h 19m
Length of Day
10h 28m
Waxing Gibbous, 97% of the Moon is Illuminated
Jan 7
Waxing Gibbous
Jan 9
Full
Jan 16
Last Quarter
Jan 23
New
Jan 30
First Quarter

Hourly Weather History & Observations

Time (CST) Temp. Dew Point Humidity Pressure Visibility Wind Dir Wind Speed Gust Speed Precip Events Conditions
12:15 AM 59.0 °F 59.2 °F 100% 29.97 in 10.0 mi SSE 6.9 mph - N/A   Clear
12:35 AM - - N/A% 29.96 in 10.0 mi SSE 6.9 mph - N/A   Clear
12:55 AM 58.8 °F 59.0 °F 100% 29.95 in 10.0 mi SSE 5.8 mph - N/A   Clear
1:15 AM 58.6 °F 58.8 °F 100% 29.95 in 10.0 mi SSE 6.9 mph - N/A   Clear
1:35 AM 58.3 °F 58.5 °F 100% 29.95 in 10.0 mi SE 5.8 mph - N/A   Clear
1:55 AM 56.5 °F 56.7 °F 100% 29.95 in 10.0 mi SE 6.9 mph - N/A   Clear
2:35 AM 55.4 °F 55.4 °F 100% 29.95 in 5.0 mi SE 5.8 mph - N/A   Clear
2:55 AM 54.7 °F 54.9 °F 100% 29.94 in 1.0 mi SE 6.9 mph - N/A   Mist
3:15 AM 55.2 °F 55.2 °F 100% 29.94 in 0.8 mi SSE 8.1 mph - N/A   Mist
3:35 AM 56.7 °F 56.8 °F 100% 29.94 in 0.5 mi SSE 8.1 mph - N/A Fog Fog
3:55 AM 56.5 °F 56.5 °F 100% 29.94 in 0.8 mi SE 6.9 mph - N/A   Overcast
4:15 AM 55.2 °F 55.4 °F 100% 29.95 in 0.5 mi SE 4.6 mph - N/A Fog Fog
4:35 AM 54.7 °F 54.9 °F 100% 29.94 in 0.5 mi SE 4.6 mph - N/A Fog Fog
4:55 AM 54.5 °F 54.7 °F 100% 29.94 in 0.2 mi SE 4.6 mph - N/A Fog Fog
5:35 AM 53.8 °F 54.0 °F 100% 29.94 in 0.5 mi SE 4.6 mph - N/A Fog Fog
5:55 AM 53.8 °F 53.8 °F 100% 29.95 in 0.5 mi SSE 4.6 mph - N/A Fog Fog
6:15 AM 53.2 °F 53.4 °F 100% 29.96 in 0.5 mi Calm Calm - N/A Fog Fog
6:35 AM 53.1 °F 53.2 °F 100% 29.97 in 0.2 mi Calm Calm - N/A Fog Fog
6:55 AM 53.4 °F 53.6 °F 100% 29.97 in 0.2 mi WSW 3.5 mph - N/A Fog Fog
7:15 AM 53.6 °F 53.8 °F 100% 29.99 in 0.2 mi Calm Calm - N/A Fog Fog
7:35 AM 54.3 °F 54.3 °F 100% 29.99 in 0.2 mi Calm Calm - N/A Fog Fog
7:55 AM 55.0 °F 55.0 °F 100% 29.99 in 0.2 mi Calm Calm - N/A Fog Fog
8:15 AM 55.4 °F 55.6 °F 100% 30.00 in 0.2 mi Calm Calm - N/A Fog Fog
8:35 AM - - N/A% 30.01 in 0.2 mi Calm Calm - N/A Fog Fog
8:55 AM 57.6 °F 57.7 °F 100% 30.02 in 0.2 mi SW 4.6 mph - N/A Fog Fog
9:15 AM 58.6 °F 58.6 °F 100% 30.02 in 0.2 mi SSW 6.9 mph - N/A Fog Fog
9:35 AM 59.2 °F 59.4 °F 100% 30.03 in 0.2 mi SW 4.6 mph - N/A Fog Fog
9:55 AM 59.9 °F 60.1 °F 100% 30.04 in 0.5 mi SSW 4.6 mph - N/A Fog Fog
10:15 AM 60.8 °F 61.0 °F 100% 30.05 in 1.0 mi SW 5.8 mph - N/A   Overcast
10:35 AM 61.3 °F 61.5 °F 100% 30.05 in 10.0 mi SSW 5.8 mph - N/A   Overcast
11:15 AM 63.9 °F 64.0 °F 100% 30.04 in 10.0 mi WSW 4.6 mph - N/A   Scattered Clouds
11:35 AM 66.0 °F 63.7 °F 92% 30.03 in 10.0 mi WSW 4.6 mph - N/A   Clear
12:15 PM 71.2 °F 61.2 °F 70% 30.01 in 10.0 mi West 5.8 mph - N/A   Clear
12:35 PM 72.5 °F 60.6 °F 66% 30.00 in 10.0 mi West 3.5 mph - N/A   Clear
1:15 PM 74.8 °F 59.9 °F 60% 29.97 in 10.0 mi WNW 3.5 mph - N/A   Clear
1:35 PM 75.7 °F 59.2 °F 56% 29.97 in 10.0 mi WSW 4.6 mph - N/A   Clear
1:55 PM 76.5 °F 58.8 °F 54% 29.96 in 10.0 mi NW 4.6 mph - N/A   Clear
2:15 PM 77.0 °F 57.6 °F 51% 29.95 in 10.0 mi Calm Calm - N/A   Clear
2:35 PM 78.4 °F 57.4 °F 48% 29.94 in 10.0 mi SW 5.8 mph - N/A   Clear
2:55 PM 79.0 °F 57.2 °F 47% 29.94 in 10.0 mi WSW 5.8 mph - N/A   Clear
3:15 PM 79.0 °F 56.5 °F 46% 29.94 in 10.0 mi WSW 6.9 mph - N/A   Clear
3:35 PM 79.5 °F 56.1 °F 44% 29.94 in 10.0 mi WSW 4.6 mph - N/A   Clear
3:55 PM 79.5 °F 55.8 °F 44% 29.94 in 10.0 mi West 4.6 mph - N/A   Clear
4:15 PM 79.5 °F 55.0 °F 43% 29.94 in 10.0 mi WSW 5.8 mph - N/A   Clear
4:35 PM 79.2 °F 54.1 °F 42% 29.94 in 10.0 mi WSW 5.8 mph - N/A   Clear
4:55 PM 78.8 °F 57.0 °F 47% 29.94 in 10.0 mi NW 9.2 mph - N/A   Clear
5:15 PM 77.2 °F 58.5 °F 52% 29.95 in 10.0 mi NNW 9.2 mph - N/A   Clear
5:35 PM 75.2 °F 58.5 °F 56% 29.95 in 10.0 mi NNW 10.4 mph - N/A   Clear
5:55 PM 72.9 °F 57.9 °F 59% 29.96 in 10.0 mi NNW 9.2 mph - N/A   Clear
6:15 PM 70.9 °F 57.4 °F 62% 29.97 in 10.0 mi North 9.2 mph - N/A   Clear
6:35 PM 69.3 °F 56.8 °F 65% 29.98 in 10.0 mi North 8.1 mph - N/A   Clear
6:55 PM 67.5 °F 56.3 °F 67% 29.98 in 10.0 mi North 5.8 mph - N/A   Clear
7:15 PM 66.0 °F 56.1 °F 70% 29.98 in 10.0 mi North 5.8 mph - N/A   Clear
7:35 PM 64.8 °F 55.4 °F 72% 29.99 in 10.0 mi North 5.8 mph - N/A   Clear
7:55 PM 64.2 °F 55.6 °F 73% 29.99 in 10.0 mi North 6.9 mph - N/A   Clear
8:15 PM 63.9 °F 55.4 °F 74% 29.99 in 10.0 mi North 5.8 mph - N/A   Clear
8:35 PM 63.0 °F 55.4 °F 76% 29.98 in 10.0 mi NNE 5.8 mph - N/A   Clear
8:55 PM 62.4 °F 55.4 °F 78% 29.98 in 10.0 mi NNE 6.9 mph - N/A   Clear
9:15 PM 62.4 °F 55.4 °F 78% 29.98 in 10.0 mi NNE 5.8 mph - N/A   Clear
9:35 PM 62.6 °F 55.4 °F 77% 29.98 in 10.0 mi NE 4.6 mph - N/A   Clear
9:55 PM 62.1 °F 55.0 °F 78% 29.99 in 10.0 mi ENE 3.5 mph - N/A   Clear
10:15 PM 61.0 °F 54.7 °F 80% 29.99 in 10.0 mi Calm Calm - N/A   Clear
10:35 PM 60.3 °F 54.5 °F 81% 29.99 in 10.0 mi Calm Calm - N/A   Clear
10:55 PM 59.7 °F 54.1 °F 82% 29.99 in 10.0 mi Calm Calm - N/A   Clear
11:15 PM 59.5 °F 56.5 °F 90% 29.99 in 10.0 mi SE 4.6 mph - N/A   Clear
11:35 PM 59.2 °F 59.2 °F 100% 29.99 in 10.0 mi SSE 5.8 mph - N/A   Clear
11:55 PM 59.9 °F 60.1 °F 100% 29.99 in 10.0 mi South 8.1 mph - N/A   Clear